Regional Weather Roundup
Issued by NWS

Home | Current Version | Previous Version | Text Only | Print | Product List | Glossary On
Versions: 1 2 3 4 5 6 7 8 9 10 11 12 13 14 15 16 17 18 19 20 21 22 23 24 25 26 27 28 29 30 31 32 33 34 35 36 37 38 39 40 41 42 43 44 45 46 47 48 49 50
000
ASUS43 KOAX 242010
RWRNE

WEATHER ROUNDUP FOR NEBRASKA
NATIONAL WEATHER SERVICE OMAHA NE
200 PM CST SAT FEB 24 2018

NOTES: SATELLITE DATA IS BEING USED TO AUGMENT CLOUD COVER ABOVE
       12000 FEET.
       "FAIR" INDICATES FEW OR NO CLOUDS BELOW 12,000 FEET WITH NO
       SIGNIFICANT WEATHER AND/OR OBSTRUCTIONS TO VISIBILITY.


NEZ001>004-019>022-054>056-242100-
NEBRASKA PANHANDLE

CITY           SKY/WX    TMP DP  RH WIND       PRES   REMARKS
SCOTTSBLUFF    SUNNY     31  12  45 NW31G39   29.74R WCI  16
ALLIANCE       SUNNY     27  15  61 NW22G35   29.70F WCI  13
CHADRON        SUNNY     24  14  65 NW22G31   29.74F WCI   9
GORDON         FAIR      27  13  55 NW15      29.68F WCI  15
KIMBALL        SUNNY     27  15  62 NW29G35   29.74F WCI  11
SIDNEY         SUNNY     32   9  38 NW37G52   29.73F WCI  16
$$

NEZ057>060-069>072-079>082-242100-
SOUTHWEST NEBRASKA

CITY           SKY/WX    TMP DP  RH WIND       PRES   REMARKS
NORTH PLATTE   SUNNY     34  22  61 W16       29.71F WCI  24
IMPERIAL       SUNNY     35  15  44 NW25G33   29.73F WCI  23
LEXINGTON      PTSUNNY   33  28  81 W16G24    29.73F WCI  23
MCCOOK         SUNNY     37  22  54 NW23      29.75F WCI  26
OGALLALA       SUNNY     33  17  51 W28G36    29.74R WCI  20
$$

NEZ005>010-023>029-035>040-094-242100-
NORTH CENTRAL NEBRASKA

CITY           SKY/WX    TMP DP  RH WIND       PRES   REMARKS
VALENTINE      MOSUNNY   31  21  66 NW14G21   29.63F WCI  21
AINSWORTH      CLOUDY    32  25  74 W12       29.63F WCI  23
BROKEN BOW     PTSUNNY   29  23  78 W15       29.69F WCI  18
O`NEILL        PTSUNNY   25  21  86 SW10      29.69F WCI  14
ORD            LGT SNOW  28  24  85 SW13      29.69F VSB 1   WCI  17
THEDFORD       SUNNY     32  17  54 W21G38    29.67S WCI  20
$$

NEZ041-046>049-061>064-073>077-083>087-242100-
SOUTH CENTRAL NEBRASKA

CITY           SKY/WX    TMP DP  RH WIND       PRES   REMARKS
GRAND ISLAND   CLOUDY    27  23  85 SW9       29.74F FOG     WCI  18
AURORA         CLOUDY    26  22  87 SW3       29.75F
HASTINGS       CLOUDY    26  22  84 SW7       29.75F WCI  18
HEBRON         CLOUDY    29  26  88 W6        29.78F WCI  22
HOLDREGE       CLOUDY    32  28  86 W13       29.74F FOG     WCI  22
KEARNEY        MIX PCPN  32  25  75 W12       29.74F WCI  23
YORK           PTSUNNY   25  25 100 CALM      29.76F
$$

NEZ011>018-030>034-042>045-242100-
NORTHEAST NEBRASKA

CITY           SKY/WX    TMP DP  RH WIND       PRES   REMARKS
NORFOLK        CLOUDY    24  20  84 S8        29.71F WCI  15
ALBION         LGT SNOW  24  22  94 S5        29.72F WCI  18
BLAIR          LGT SNOW  29  27  92 CALM      29.74F VSB 1
COLUMBUS       CLOUDY    28  21  75 W7        29.76F WCI  21
FREMONT        CLOUDY    28  26  91 CALM      29.76F
TEKAMAH        LGT SNOW  26  24  92 CALM      29.76F FOG
WAYNE          CLOUDY    23  22  96 CALM      29.74F
$$

NEZ050>053-065>068-078-088>093-242100-
SOUTHEAST NEBRASKA

CITY           SKY/WX    TMP DP  RH WIND       PRES   REMARKS
LINCOLN        CLOUDY    28  25  88 W3        29.78F FOG
OMAHA EPPLEY   LGT SNOW  29  27  92 N3        29.76F VSB 1
BEATRICE       LGT SNOW  29  28  94 NW6       29.77F WCI  23
FALLS CITY     CLOUDY    31  30  96 NW8       29.71F FOG     WCI  23
NEBRASKA CITY  MIX PCPN  30  30 100 NW6       29.75F WCI  24
PLATTSMOUTH    LGT SNOW  29  29  99 W3        29.75F VSB 3/4
$$

NEZ044-045-051>053-067-242100-
OMAHA AREA

CITY           SKY/WX    TMP DP  RH WIND       PRES   REMARKS
OMAHA EPPLEY   LGT SNOW  29  27  92 N3        29.76F VSB 1
BLAIR          LGT SNOW  29  27  92 CALM      29.74F VSB 1
FREMONT        CLOUDY    28  26  91 CALM      29.76F
MILLARD        LGT SNOW  31  28  92 W3        29.76F VSB 3/4
OFFUTT AFB     LGT SNOW  29  28  96 W3        29.75F FOG
PLATTSMOUTH    LGT SNOW  29  29  99 W3        29.75F VSB 3/4
WAHOO          CLOUDY    28  24  88 CALM      29.76F
$$




USA.gov is the U.S. government's official web portal to all federal, state and local government web resources and services.